Location: Laverne
(36.7100°N, 99.8930°W)
Time: 02:16:18
(UTC-05:00)

Daily predictions for brighter satellites

Satellite Brightness Start Highest point End
(mag) Time Altitude Azimuth Time Altitude Azimuth Time Altitude Azimuth
Milstar 3 4.0 04:43:13 31° SE 04:43:13 31° SE 04:47:13 10° ESE
Cosmos 1656 Rocket 4.4 05:09:34 48° ESE 05:09:38 48° ESE 05:15:06 10° NNE
NOSS 3-1 (C) 4.4 05:10:26 34° SE 05:11:40 38° ESE 05:17:14 10° NE
USA 229 DEB 3.6 05:13:07 79° NE 05:13:07 79° NE 05:19:34 10° NNE
USA 229 3.6 05:13:10 79° NE 05:13:10 79° NE 05:19:39 10° NNE
Lacrosse 5 4.4 05:22:28 11° N 05:22:28 11° N 05:23:00 10° N
Cosmos 1943 Rocket 3.5 05:29:27 27° N 05:29:27 27° N 05:32:09 10° N
Nadezhda 1 Rocket 3.9 05:27:22 74° S 05:28:02 89° W 05:34:27 10° N
USA 267 3.1 05:22:31 10° SE 05:29:03 77° SW 05:29:28 74° W
CZ-4C R/B 3.0 05:25:41 28° NNW 05:30:00 76° ENE 05:38:04 10° SE
Tiangong 2 4.2 05:32:51 16° ENE 05:32:51 16° ENE 05:33:44 10° E
CZ-4B R/B 4.1 05:26:00 10° NNE 05:31:17 47° E 05:36:37 10° S
ADEOS II 3.2 05:30:32 10° N 05:33:24 32° N 05:33:24 32° N
Cosmos 44 3.6 05:39:12 56° SE 05:39:12 56° SE 05:43:04 10° SSE
CZ-3A R/B 4.3 05:37:55 24° S 05:38:54 25° SSE 05:49:14 10° ESE
Okean O Rocket 1.7 05:40:58 10° NNE 05:44:59 71° NE 05:44:59 71° NE
Cosmos 1937 Rocket 4.4 05:50:50 36° NNW 05:50:50 36° NNW 05:54:21 10° N
Shenzhou-11 Module 4.1 05:54:22 27° ESE 05:54:22 27° ESE 05:55:55 10° ESE
IRS-1C Rocket 4.3 05:49:00 10° NNE 05:54:16 68° ESE 05:59:30 10° S
Cosmos 1758 Rocket 3.4 05:55:29 80° NW 05:55:29 80° NW 05:59:53 10° N
Cosmos 1125 Rocket 4.3 05:53:13 10° S 05:58:16 51° ESE 06:03:23 10° NNE
Cosmos-2242 4.1 05:55:14 10° N 05:59:21 45° E 06:03:30 10° SSE
Cosmos 44 Rocket 3.2 05:59:46 63° WSW 05:59:46 63° WSW 06:04:36 10° SSE
Cosmos 2154 Rocket 3.9 05:56:30 10° N 06:02:50 75° W 06:09:06 10° S
Cosmos 2369 Rocket 4.2 06:10:48 12° NNW 06:10:48 12° NNW 06:11:47 10° NNW
Meteor 1-31 Rocket 2.6 06:13:50 10° N 06:17:39 85° WNW 06:21:26 10° SSW
Meteor 2-21 4.4 06:18:24 10° N 06:24:30 90° ENE 06:30:36 10° S
Cosmos 1707 3.8 06:26:22 28° NW 06:26:22 28° NW 06:28:46 10° NNW
SJ-6F 4.3 06:31:56 10° N 06:35:59 65° WNW 06:40:00 10° SSW
Cosmos 2219 3.2 06:32:52 10° NNW 06:38:34 87° ENE 06:44:11 10° SSE
APEX 3.9 06:37:30 24° WNW 06:39:25 40° WSW 06:43:57 10° S
Cosmos 2218 Rocket 4.1 06:33:58 10° N 06:40:13 79° E 06:46:32 10° S
Meteor 2-5 Rocket 3.9 06:36:00 10° SSW 06:41:46 53° WNW 06:47:28 10° N
GPS 2-04 Rocket1 3.3 06:41:41 25° WSW 06:43:16 38° SSW 06:46:41 10° SE
Intercosmos 24 3.9 06:38:58 10° N 06:43:39 87° W 06:47:18 10° S
CZ-2C R/B 4.4 06:39:19 10° NNE 06:43:49 33° E 06:48:23 10° SSE
EO 1 Del DPAF 3.2 06:43:35 10° SSE 06:47:24 85° ENE 06:51:15 10° N
Meteor 2-14 Rocket 4.3 06:41:56 10° N 06:47:59 75° W 06:54:01 10° S
Cosmos 158 Rocket 4.0 06:43:23 10° NNW 06:48:47 74° WSW 06:54:08 10° S
SJ 16-02 1.4 06:45:22 10° SSW 06:49:40 55° WNW 06:54:00 10° N
Cosmos 2297 Rocket 4.0 06:45:22 10° N 06:50:24 32° ENE 06:55:24 10° ESE
USA 81 4.1 06:46:47 10° SSW 06:51:55 54° W 06:57:06 10° N
Meteor 2-16 Rocket 4.4 06:45:53 10° N 06:52:03 83° W 06:58:12 10° S
Cosmos 2341 Rocket 4.4 06:47:08 10° NNW 06:53:03 41° W 06:58:57 10° SSW
Cosmos 2181 Rocket 4.3 06:47:39 10° SSW 06:53:33 43° WNW 06:59:24 10° N
OAO 2 Rocket 3.5 06:51:42 18° W 06:55:19 58° SSW 07:00:10 10° ESE
In-Cosmos 22 4.2 06:54:00 10° SSW 06:59:33 70° W 07:05:15 10° N
SKYMED 2 3.6 06:57:14 10° SSE 07:01:34 89° WSW 07:05:56 10° NNW
NOSS 3-1 (C) 4.1 06:57:55 13° WSW 07:02:29 33° NW 07:08:11 10° NNE
Tiangong 2 1.4 07:05:12 15° WNW 07:07:42 53° SSW 07:10:50 10° SE
NOSS 3-1 (A) 3.8 07:02:29 10° WSW 07:07:53 41° NW 07:13:55 10° NNE
Cosmos 1356 4.0 07:06:08 10° SW 07:09:20 34° WNW 07:12:33 10° N
CZ-4B R/B 4.4 07:07:28 10° NNW 07:11:28 21° WNW 07:15:32 10° WSW
SL-08 R/B 4.5 07:05:59 10° NNW 07:12:07 68° W 07:18:19 10° S
USA 116 4.5 07:10:22 10° SSW 07:13:18 26° W 07:16:31 10° NW
Cosmos 2369 3.9 07:09:45 10° SSW 07:15:23 82° ESE 07:21:03 10° NNE
Meteor 1-28 Rocket 4.1 07:12:05 10° SSW 07:15:26 29° W 07:18:48 10° NW
CZ-3 R/B 3.9 07:00:07 12° W 07:17:21 30° SW 07:24:01 10° SSE
Cosmos 1269 Rocket 4.1 07:12:14 10° NNW 07:17:26 56° WSW 07:22:36 10° S
CZ-4C R/B 4.1 07:12:34 10° WNW 07:18:08 22° WSW 07:23:59 10° SSW
Milstar 3 4.1 07:17:35 10° WSW 07:23:36 34° SSW 07:31:46 10° SE
Thor Agena Rocket 4.0 07:20:08 10° SSE 07:25:22 70° ENE 07:30:36 10° N
